Wind_Speed
22 23 24 25 25 26 27 28 28 28 27 26 25 26 26 26 26 26 27 28 28 29 30 29 29 29 29 29 29 29 29 28 28 27 27 26 25 25 25 25 25 24 23 23
23 23 24 25 25 26 27 28 27 26 27 25 25 25 25 26 26 26 27 28 28 29 30 30 30 30 30 29 29 29 29 29 29 28 28 27 26 25 25 25 24 23 22 23
21 23 24 26 24 25 26 26 26 26 26 25 25 24 25 26 26 26 27 28 29 29 29 30 30 29 30 29 29 29 29 29 29 29 28 27 26 26 25 25 23 23 23 23
20 21 23 24 23 24 25 24 25 25 24 24 24 24 24 25 26 27 27 28 28 28 28 28 28 29 30 29 29 29 29 29 29 29 29 28 27 26 25 25 25 25 24 23
20 21 22 22 22 23 23 23 23 24 25 25 24 24 24 25 26 26 27 27 27 28 28 28 27 28 29 29 29 28 28 29 29 29 28 28 27 26 26 26 26 26 25 25
20 20 21 21 21 22 22 24 23 23 23 23 23 23 23 23 24 25 25 26 26 27 27 27 27 27 28 28 28 28 28 28 29 28 28 27 26 26 27 27 26 26 25 25
19 19 21 21 21 23 23 23 23 23 23 23 22 22 23 23 24 25 25 25 26 26 27 27 27 28 28 29 29 29 29 29 29 29 28 27 27 27 26 26 26 26 26 26
19 19 20 21 21 22 23 23 23 23 22 22 22 22 23 24 24 25 25 25 25 26 26 27 27 28 28 29 30 30 30 30 30 29 28 27 27 26 26 26 27 27 27 27
18 18 19 19 19 20 21 22 22 22 22 22 22 22 22 23 24 24 24 25 25 26 26 27 27 27 28 28 29 29 29 29 29 28 27 27 27 26 26 26 27 27 27 28
18 18 17 17 17 18 19 20 21 22 22 22 22 22 22 23 23 24 24 25 25 25 26 27 27 26 27 27 27 27 27 27 27 27 27 27 27 27 26 27 27 27 28 28
17 17 16 16 17 17 17 19 19 20 21 22 22 22 23 23 22 23 24 24 24 25 25 25 25 26 26 27 26 26 26 26 26 27 28 28 28 27 27 27 28 28 28 28
16 16 15 15 16 16 18 18 19 20 21 22 22 23 23 24 24 24 24 24 24 25 24 25 25 26 27 27 27 27 27 27 28 28 28 29 28 28 29 29 28 28 28 28
16 16 16 15 16 16 17 19 19 20 22 22 22 23 23 24 24 24 24 25 25 25 26 26 27 27 27 27 28 28 28 28 28 29 29 30 29 29 29 29 28 27 28 28
16 16 16 16 17 17 17 17 18 19 21 21 21 22 22 22 23 23 24 25 25 25 26 27 28 28 27 27 28 28 28 29 29 30 30 30 29 29 28 28 27 27 28 28
16 16 16 16 17 17 17 17 17 18 18 19 19 19 20 20 21 22 23 24 25 25 26 27 28 28 28 28 28 29 29 29 29 29 29 29 28 28 28 28 28 28 28 28
15 16 16 16 16 16 16 16 16 16 16 16 17 17 18 19 20 21 22 23 24 24 25 26 28 29 29 28 28 28 28 28 28 28 28 28 29 28 28 28 27 27 27 28
15 15 15 15 15 15 15 14 14 15 15 15 15 16 17 17 19 21 22 23 23 23 23 24 26 27 28 28 27 27 28 28 27 27 27 27 27 27 27 27 26 27 27 27
15 15 14 15 15 15 14 14 14 14 14 15 16 17 17 18 18 19 20 21 22 23 23 24 24 26 27 27 26 26 26 26 27 27 26 26 26 26 26 26 27 27 28 28
13 14 14 14 15 14 14 14 15 16 16 16 17 17 17 18 18 19 20 20 20 21 22 23 24 24 24 25 25 25 25 25 25 25 25 25 25 25 25 25 26 26 27 27
12 12 13 14 14 14 14 14 15 16 16 16 17 17 18 19 19 19 20 20 20 20 21 22 22 23 23 23 24 24 24 24 25 25 25 26 26 25 25 25 25 25 25 25
12 11 11 12 13 13 14 14 15 15 16 17 17 17 18 19 19 19 19 19 19 20 20 20 20 20 21 22 22 23 23 24 24 24 25 25 25 25 25 24 24 24 25 25
12 12 12 12 13 13 14 15 15 16 16 17 17 17 17 17 18 18 18 19 19 19 20 19 19 19 19 20 20 21 22 23 23 23 23 23 23 23 23 24 23 24 24 24
11 12 12 13 13 13 13 13 14 14 15 16 16 16 16 16 16 17 17 18 18 18 19 19 18 18 18 19 19 20 20 21 21 21 22 22 23 23 23 23 23 24 24 25
12 12 13 13 14 13 13 12 13 13 13 14 14 14 15 16 16 16 17 17 17 17 17 17 17 18 18 18 19 20 21 22 23 23 23 23 24 24 24 24 25 25 25 25
12 13 13 13 13 13 12 12 12 13 13 13 14 14 15 15 15 15 15 15 15 14 15 15 16 17 18 18 19 19 20 21 22 23 24 24 24 24 24 25 25 25 25 25
12 12 13 13 13 12 12 11 11 12 13 14 14 15 15 14 14 14 14 13 12 12 13 13 14 15 16 18 18 19 20 20 20 21 22 23 23 24 24 24 24 24 24 25
11 11 11 11 11 11 11 11 11 12 13 13 14 14 14 14 13 13 13 12 12 13 13 14 14 15 15 16 17 18 19 19 20 21 21 22 22 23 24 24 24 24 25 24
Wind_Direction
256 258 259 259 256 254 254 255 255 255 253 253 251 249 247 245 244 243 244 243 245 248 249 251 253 254 254 254 255 256 258 260 263 264 265 266 267 269 270 273 274 274 273 275
259 259 259 258 258 256 254 255 254 252 250 250 251 249 247 246 245 244 246 245 245 248 250 252 254 254 255 255 255 256 257 259 262 263 263 265 265 267 269 271 270 270 272 274
261 261 260 258 258 257 254 254 251 251 252 249 249 250 249 247 247 247 247 248 248 248 250 252 253 254 254 256 257 257 257 259 260 261 263 264 264 266 268 268 267 269 272 273
266 266 263 262 261 258 255 253 251 251 248 246 248 250 249 248 248 249 250 249 250 248 249 251 253 255 255 256 259 259 258 259 259 259 261 263 264 264 266 267 268 269 272 273
267 267 268 265 263 259 255 252 251 251 247 247 248 249 249 249 248 247 247 248 250 250 250 250 252 255 255 257 258 258 258 260 263 261 261 263 263 264 266 268 268 269 271 272
268 268 268 267 264 260 259 257 255 254 247 246 245 248 248 248 246 247 247 248 250 251 251 251 252 254 255 255 257 259 259 260 262 261 263 262 262 264 267 269 269 268 270 272
266 267 268 268 267 262 259 258 255 254 249 247 245 245 246 246 246 247 249 251 252 253 252 251 252 254 254 255 257 259 260 260 261 262 262 262 263 265 266 268 268 268 269 271
268 269 268 268 265 260 259 256 255 253 250 248 247 247 248 246 246 247 249 250 251 251 252 253 254 256 255 255 257 257 259 260 261 260 261 262 262 263 266 268 268 269 269 270
265 266 270 268 265 262 260 257 254 251 250 251 249 248 248 248 247 247 248 250 250 250 251 252 254 255 255 256 257 258 259 260 261 259 258 260 262 264 265 267 268 269 271 272
265 265 269 267 262 261 260 257 253 248 247 249 248 247 248 249 250 250 250 253 252 252 251 252 253 254 255 256 257 258 259 260 259 258 258 260 263 263 264 266 268 270 271 272
268 268 265 266 262 258 257 256 253 249 250 251 250 249 249 249 249 251 253 255 256 253 252 253 254 254 254 256 256 258 259 260 259 259 261 262 262 263 264 267 269 270 270 270
272 271 269 266 264 262 260 260 256 254 254 255 254 253 253 252 251 253 254 256 257 255 253 252 252 255 255 255 257 258 259 260 261 261 264 264 264 265 266 268 270 269 270 270
271 271 270 268 266 266 265 261 258 258 257 257 256 254 253 252 253 254 256 257 258 256 254 253 252 254 255 256 258 259 260 261 261 263 264 266 267 266 267 269 269 270 270 269
273 272 271 271 270 268 269 265 262 263 263 261 260 257 253 252 253 255 257 259 260 258 256 253 252 254 255 257 259 260 261 263 265 265 266 267 267 267 270 271 271 271 272 271
275 274 273 273 274 271 273 271 270 269 267 265 263 259 255 257 258 259 261 262 262 259 256 254 254 255 257 259 260 261 262 264 265 267 267 267 267 268 269 271 271 271 272 272
277 278 278 278 278 275 276 274 273 271 269 269 265 261 261 261 262 262 264 265 263 260 257 256 257 259 261 261 261 261 262 263 265 266 266 267 267 268 269 270 270 271 272 272
280 279 278 276 277 278 276 274 272 271 272 272 268 267 265 264 263 265 265 264 265 265 262 260 260 260 261 262 261 262 262 264 265 266 266 266 267 267 268 268 269 269 271 271
280 278 275 273 275 278 279 277 275 274 273 269 269 270 269 268 270 272 272 268 265 265 265 264 263 262 262 262 261 260 259 259 261 262 264 265 266 268 269 269 268 269 270 270
282 277 274 272 272 275 279 280 279 276 273 271 273 272 271 273 274 276 277 273 271 269 267 267 267 266 264 262 261 260 261 261 261 261 263 265 267 270 272 272 272 272 272 272
287 286 281 274 273 275 278 278 278 277 275 277 278 277 275 276 278 278 278 275 274 276 275 273 271 267 266 265 263 261 261 262 262 263 265 266 267 269 271 273 273 274 275 275
287 287 287 285 281 280 278 279 278 275 275 276 277 278 278 278 277 278 281 280 277 276 276 275 271 267 265 265 264 261 260 261 263 265 266 267 268 269 271 272 273 274 276 276
285 287 289 289 289 287 284 281 280 278 278 277 277 279 280 280 279 278 279 279 277 276 276 274 271 268 265 264 264 263 262 261 261 262 264 267 269 270 272 272 273 275 276 276
283 287 291 292 291 291 289 288 287 285 283 282 282 280 279 281 283 284 283 281 278 276 275 273 271 269 267 265 264 264 264 265 264 264 265 267 268 270 272 273 274 275 276 276
283 288 292 294 294 295 295 293 291 289 286 284 285 286 284 284 284 286 287 285 280 277 274 271 268 268 269 270 268 267 268 268 269 269 270 271 271 271 272 274 275 276 276 275
286 290 292 292 295 296 297 295 293 292 291 289 289 291 291 289 287 289 289 289 287 281 276 273 271 270 270 271 271 269 269 270 270 269 268 268 269 271 271 273 275 276 277 276
285 288 291 293 295 298 297 297 296 295 294 293 293 294 292 289 289 291 290 290 289 285 281 277 275 276 276 275 275 275 275 275 275 274 273 272 271 272 272 273 275 277 278 277
284 288 292 294 294 296 297 297 297 297 298 299 298 297 292 286 283 287 288 286 287 287 283 280 279 281 282 282 281 279 278 277 276 276 275 274 273 274 275 276 276 278 279 279
Height
5757 5758 5758 5759 5760 5761 5762 5763 5765 5766 5767 5768 5769 5771 5773 5775 5777 5779 5781 5783 5785 5787 5789 5791 5793 5794 5795 5796 5797 5798 5799 5799 5800 5800 5800 5801 5801 5800 5800 5800 5799 5798 5798 5797
5751 5751 5751 5751 5753 5753 5754 5755 5756 5757 5759 5761 5761 5763 5765 5767 5769 5772 5774 5776 5778 5779 5781 5783 5785 5786 5787 5788 5789 5790 5791 5791 5792 5792 5793 5793 5793 5793 5793 5792 5792 5791 5791 5790
5744 5744 5744 5744 5746 5746 5746 5747 5749 5749 5752 5753 5755 5756 5758 5760 5762 5764 5766 5768 5770 5772 5773 5775 5776 5778 5779 5780 5781 5782 5783 5783 5784 5784 5785 5785 5785 5786 5785 5785 5785 5784 5784 5783
5737 5738 5737 5740 5738 5738 5739 5740 5741 5742 5743 5746 5748 5749 5751 5752 5754 5756 5758 5760 5762 5763 5765 5767 5768 5769 5771 5772 5773 5774 5775 5775 5776 5776 5777 5777 5778 5778 5778 5778 5778 5777 5777 5776
5731 5730 5730 5731 5731 5731 5732 5733 5734 5735 5736 5738 5740 5742 5743 5745 5747 5749 5751 5752 5754 5756 5757 5759 5760 5761 5762 5764 5765 5766 5767 5767 5768 5768 5769 5769 5770 5770 5770 5770 5770 5769 5769 5769
5724 5724 5723 5725 5724 5724 5726 5726 5727 5728 5729 5731 5733 5735 5737 5738 5740 5742 5743 5745 5747 5748 5749 5751 5752 5753 5755 5756 5757 5758 5759 5759 5760 5761 5761 5761 5762 5762 5762 5762 5762 5762 5762 5761
5718 5717 5716 5717 5716 5718 5720 5720 5720 5721 5722 5724 5725 5728 5730 5731 5733 5735 5736 5738 5739 5740 5742 5743 5744 5746 5747 5748 5749 5749 5750 5751 5752 5752 5753 5754 5754 5754 5754 5754 5754 5754 5754 5754
5711 5711 5712 5709 5709 5711 5711 5712 5713 5714 5715 5717 5718 5720 5722 5723 5725 5727 5729 5730 5731 5733 5734 5735 5736 5737 5738 5739 5740 5741 5741 5742 5743 5744 5745 5745 5746 5746 5746 5746 5746 5746 5746 5745
5706 5706 5704 5702 5702 5702 5703 5704 5706 5707 5708 5710 5712 5714 5715 5716 5718 5719 5721 5722 5723 5725 5726 5727 5728 5729 5730 5731 5731 5732 5733 5734 5735 5735 5736 5737 5737 5738 5738 5738 5738 5738 5737 5737
5699 5699 5697 5696 5696 5696 5697 5697 5699 5700 5702 5703 5705 5707 5708 5710 5711 5712 5714 5715 5715 5717 5718 5719 5720 5721 5722 5722 5723 5724 5725 5726 5726 5727 5728 5729 5729 5730 5730 5730 5729 5729 5729 5728
5694 5693 5692 5691 5690 5690 5691 5691 5692 5693 5695 5697 5698 5700 5701 5702 5703 5705 5706 5707 5708 5709 5710 5711 5712 5713 5714 5714 5715 5717 5718 5718 5719 5719 5720 5720 5721 5721 5721 5721 5720 5720 5720 5719
5688 5688 5687 5686 5686 5685 5686 5686 5686 5687 5688 5690 5691 5692 5693 5695 5696 5697 5698 5699 5699 5700 5701 5703 5704 5705 5705 5706 5707 5708 5709 5710 5711 5711 5711 5712 5712 5712 5712 5712 5711 5711 5710 5710
5684 5683 5682 5681 5680 5680 5680 5680 5681 5681 5682 5683 5684 5685 5686 5687 5688 5689 5690 5691 5691 5692 5693 5694 5695 5696 5697 5698 5699 5700 5701 5702 5702 5703 5703 5703 5703 5703 5703 5703 5702 5702 5702 5702
5679 5679 5678 5676 5675 5675 5674 5675 5675 5675 5675 5676 5677 5678 5679 5680 5681 5681 5682 5682 5683 5683 5684 5686 5687 5688 5689 5690 5691 5692 5693 5693 5693 5694 5694 5694 5694 5694 5694 5694 5694 5694 5694 5693
5675 5674 5673 5672 5671 5670 5669 5669 5669 5669 5669 5670 5670 5671 5672 5672 5673 5674 5674 5674 5675 5675 5676 5677 5679 5680 5680 5681 5682 5683 5684 5685 5685 5685 5685 5685 5685 5686 5686 5686 5685 5685 5685 5684
5670 5669 5668 5667 5666 5665 5665 5664 5664 5664 5664 5665 5665 5665 5665 5666 5666 5666 5666 5666 5666 5666 5667 5669 5670 5671 5672 5673 5673 5674 5675 5676 5677 5677 5677 5677 5677 5677 5677 5677 5677 5677 5676 5676
5665 5664 5663 5663 5662 5661 5660 5659 5659 5659 5660 5660 5660 5660 5660 5660 5659 5659 5659 5659 5658 5658 5659 5660 5661 5662 5663 5663 5664 5665 5666 5667 5668 5668 5668 5669 5669 5669 5669 5669 5668 5668 5668 5668
5660 5659 5659 5658 5657 5656 5655 5655 5654 5654 5654 5654 5654 5654 5654 5653 5653 5652 5652 5651 5651 5651 5651 5651 5652 5653 5654 5655 5656 5656 5657 5658 5659 5659 5660 5660 5661 5661 5660 5660 5660 5660 5659 5659
5656 5655 5654 5653 5652 5652 5651 5651 5650 5649 5649 5649 5648 5648 5647 5647 5646 5646 5645 5644 5644 5644 5644 5644 5644 5645 5646 5646 5647 5648 5649 5650 5651 5651 5652 5652 5652 5652 5652 5651 5651 5651 5650 5650
5651 5650 5650 5649 5648 5647 5647 5646 5645 5645 5644 5644 5643 5642 5641 5641 5640 5639 5638 5638 5637 5637 5637 5636 5637 5637 5638 5638 5639 5640 5641 5642 5642 5643 5644 5644 5644 5644 5644 5643 5643 5642 5642 5641
5647 5646 5645 5645 5644 5643 5643 5642 5641 5640 5639 5638 5638 5637 5636 5635 5634 5633 5632 5632 5631 5630 5630 5630 5629 5630 5630 5631 5631 5632 5633 5634 5634 5635 5635 5635 5636 5636 5636 5635 5635 5634 5634 5633
5643 5642 5641 5640 5639 5639 5638 5637 5636 5635 5634 5633 5632 5631 5630 5629 5628 5627 5626 5625 5625 5624 5623 5623 5623 5623 5623 5624 5624 5625 5625 5626 5626 5627 5627 5628 5628 5628 5628 5627 5627 5626 5626 5625
5639 5638 5637 5636 5635 5634 5633 5632 5631 5629 5628 5627 5626 5625 5625 5624 5623 5621 5620 5619 5618 5617 5617 5617 5617 5617 5617 5617 5618 5618 5618 5619 5619 5619 5620 5620 5620 5620 5620 5620 5619 5619 5618 5617
5635 5634 5633 5632 5631 5629 5628 5627 5626 5625 5624 5623 5622 5621 5620 5618 5617 5616 5614 5613 5612 5611 5610 5610 5610 5611 5611 5611 5611 5611 5612 5612 5612 5612 5612 5612 5612 5612 5612 5612 5611 5611 5610 5609
5630 5630 5629 5627 5626 5625 5624 5622 5621 5620 5619 5618 5617 5616 5614 5613 5612 5611 5609 5608 5606 5605 5605 5605 5605 5605 5605 5605 5605 5604 5605 5605 5605 5605 5604 5604 5604 5604 5604 5603 5603 5602 5601 5601
5626 5625 5624 5623 5622 5621 5620 5618 5617 5616 5615 5613 5612 5611 5609 5608 5607 5605 5604 5603 5602 5601 5600 5600 5599 5599 5599 5598 5598 5598 5597 5597 5597 5597 5597 5597 5596 5596 5595 5595 5595 5594 5593 5592
5622 5621 5620 5619 5618 5617 5616 5615 5613 5612 5611 5609 5608 5606 5605 5603 5602 5601 5600 5599 5598 5597 5596 5595 5594 5594 5593 5592 5592 5591 5591 5590 5590 5589 5589 5589 5588 5588 5587 5587 5586 5586 5585 5584